Main page
METAR-TAF:

METAR-TAF

Airports :

Castellón de la Plana, Spain

Castellón–Costa Azahar Airport

latitude: 40-12-35N, longitude: 0-04-11E, elevation: 360 m

Current weather observation

The report was made 22 minutes ago, at 16:30 UTC
Wind 11 kt from the Southeast, varying between East/Southeast and South
Temperature 27°C
Humidity 66%
Pressure 1014 hPa
Visibility 10 km or more
Few clouds at a height of 1500 ft

METAR: LECH 221630Z 14011KT 110V190 9999 FEW015 27/20 Q1014

Time: 18:52 (16:52 UTC)


TAF: missing

Weather observations and forecasts of more than 4000 airports (METAR and TAF reports).

The available stations are represented by yellow and red dots on the map.

Hover mouse over dot to see the name of the station.

Then click to see weather observations and forecasts.

To change the map : click on the green buttons with a black cross to zoom in, on the green button with a dash to zoom out, or on the green arrows for adjacent maps.


METAR-TAF: